Find Starlink 30897

NORAD ID: 58360 Int'l Des: 2023-177 Owner: SPXS Country: US Constellation: starlink operational
LEOCIRCULAR

リアルタイム位置

3D地球を読み込み中...

Starlink 30897について

説明を読み込み中...

次回通過

Passes for default location (London). Set your location on the main map for personalized predictions.

高度履歴

Loading altitude history...

軌道要素

1 58360U 23177K 26132.33334491 .01364782 00000-0 58656-1 0 9998
2 58360 43.0009 5.6975 0001825 283.8809 313.6121 15.19116805 5757
Epoch: May 12, 2026 • Age: 7 hours

現在のステータス

高度 507.6 km
速度 7.61 km/s
衛星直下点 30.80°N, 52.77°W
打ち上げ日 Nov 18, 2023
運用期間 2.4 years
タイプ internet

技術仕様

分類 Payload
質量 730.00 kg
乾燥質量 700.00 kg
総質量 730.00 kg
長さ 0.30 m
直径 4.10 m
スパン 29.00 m
形状 Box + pan
製造者 SPXS
バスタイプ Starlink V2M
フェーズステータス In Orbit
所有者/国 SPXS/US

Most Searched